Home   Weather   Monheim am Rhein   Past weeks

Flag for Germany Past Weather in Monheim am Rhein, North Rhine-Westphalia, Germany — Yesterday and Last 2 Weeks

52 °F

Broken clouds.

Feels Like: 51 °F
Forecast: 42 / 58 °F
Wind: 5 mph from West

Location: Duesseldorf

Current Time: Oct 26, 2016 at 1:33:42 PM

Latest Report: Oct 26, 2016 at 12:50 PM

Visibility: 6 mi

Pressure: 30.39 "Hg

Humidity: 77%

Dew Point: 45 °F

Location of Monheim am RheinLocation

Past Weather in Monheim am Rhein — Graph


Monheim am Rhein Temperature Yesterday

Maximum temperature yesterday: 50 °F (at 12:20 AM)
Minimum temperature yesterday: 48 °F (at 7:20 AM)
Average temperature yesterday: 49 °F

High & Low Weather Summary for the Past Weeks

High66 °F (Oct 16, 2:20 PM)100% (Oct 12, 2:50 AM)30.39 "Hg (Oct 12, 2:50 AM)
Low32 °F (Oct 23, 6:20 AM)52% (Oct 16, 2:20 PM)29.65 "Hg (Oct 15, 1:20 AM)
Average49 °F88%30.01 "Hg
* Reported Oct 11 12:20 PM — Oct 26 12:20 PM, Monheim am Rhein, Weather by CustomWeather, © 2016

Note: Actual official high and low records may vary slightly from our data, if they occured in-between our weather recording intervals... More about our weather records


Monheim am Rhein Weather History for the Previous 24 Hours

Scroll right to see more
Time TempWeatherWind HumidityBarometerVisibility
12:20 PM
Wed, Oct 26
52 °FBroken clouds.3 mph72%30.39 "Hg6 mi
11:50 AM52 °FScattered clouds.3 mph82%30.39 "Hg5 mi
11:20 AM52 °FPartly sunny.3 mph77%30.39 "Hg5 mi
10:50 AM50 °FPartly sunny.2 mph88%30.36 "Hg5 mi
10:20 AM50 °FPartly sunny.2 mph88%30.36 "Hg5 mi
9:50 AM48 °FPartly sunny.2 mph94%30.36 "Hg5 mi
9:20 AM48 °FPartly sunny.1 mph94%30.36 "Hg5 mi
8:50 AM48 °FPartly sunny.2 mph94%30.36 "Hg5 mi
8:20 AM48 °FPartly sunny.2 mph94%30.36 "Hg5 mi
7:50 AM48 °FPassing clouds.1 mph100%30.36 "Hg6 mi
7:20 AM48 °FOvercast.2 mph100%30.36 "HgN/A
6:50 AM48 °FOvercast.2 mph100%30.33 "HgN/A
6:20 AM48 °FPassing clouds.1 mph100%30.33 "HgN/A
5:50 AM48 °FPassing clouds.2 mph100%30.33 "HgN/A
5:20 AM48 °FPassing clouds.2 mph94%30.33 "HgN/A
4:50 AM48 °FPartly cloudy.2 mph100%30.33 "Hg6 mi
4:20 AM48 °FPartly cloudy.1 mph100%30.33 "Hg6 mi
3:50 AM48 °FPassing clouds.2 mph100%30.33 "HgN/A
3:20 AM48 °FPassing clouds.1 mph94%30.33 "HgN/A
2:50 AM48 °FPassing clouds.2 mph94%30.33 "Hg6 mi
2:20 AM48 °FPassing clouds.2 mph94%30.33 "HgN/A
1:50 AM48 °FPassing clouds.2 mph94%30.33 "HgN/A
1:20 AM48 °FPassing clouds.2 mph94%30.33 "HgN/A
12:50 AM48 °FPassing clouds.2 mph94%30.33 "HgN/A
12:20 AM48 °FPassing clouds.2 mph94%30.33 "Hg6 mi
11:50 PM
Tue, Oct 25
48 °FPassing clouds.2 mph94%30.33 "Hg5 mi
11:20 PM48 °FPassing clouds.2 mph94%30.33 "Hg5 mi
10:50 PM48 °FPartly cloudy.5 mph94%30.33 "HgN/A
10:20 PM48 °FPartly cloudy.2 mph94%30.33 "HgN/A
9:50 PM48 °FPartly cloudy.5 mph94%30.33 "HgN/A
9:20 PM48 °FPartly cloudy.2 mph94%30.30 "HgN/A
8:50 PM48 °FOvercast.1 mph94%30.30 "HgN/A
8:20 PM48 °FLow clouds.3 mph94%30.30 "HgN/A
7:50 PM48 °FLow clouds.3 mph94%30.30 "HgN/A
7:20 PM48 °FLow clouds.2 mph94%30.30 "HgN/A
6:50 PM50 °FLow clouds.3 mph88%30.27 "HgN/A
6:20 PM50 °FPartly cloudy.5 mph88%30.27 "Hg6 mi
5:50 PM50 °FBroken clouds.3 mph88%30.27 "Hg5 mi
5:20 PM50 °FPartly sunny.3 mph94%30.27 "Hg5 mi
4:50 PM50 °FPartly sunny.2 mph94%30.24 "Hg5 mi
4:20 PM50 °FPartly sunny.3 mph94%30.24 "Hg5 mi
3:50 PM50 °FPartly sunny.3 mph94%30.24 "Hg4 mi
3:20 PM50 °FPartly sunny.5 mph94%30.24 "Hg4 mi
2:50 PM50 °FFog.5 mph94%30.24 "Hg3 mi
2:20 PM50 °FFog.3 mph94%30.21 "Hg3 mi
1:50 PM48 °FFog.3 mph100%30.21 "Hg3 mi
1:20 PM48 °FLow clouds.2 mph100%30.21 "Hg4 mi
Weather by CustomWeather, © 2016

See weather overviewHow to use our weather pages